,,Stat5,,Stat1,,Stat2,,Stat3,,Stat4,,Wind1,,Wind1,
time,status,PA1M_AVG,status,PR1M_SUM,status,RH1M_AVG,status,SR1M_AVG,status,TA1M_AVG,status,W1dAve1m,status,W1sAve1m,
2002-03-29, 00:00:00,VALID,918.136,VALID,0,VALID,98.3116,VALID,0,VALID,21.0501,VALID,207,VALID,0.0384766,
2002-03-29, 00:01:00,VALID,918.14,VALID,0,VALID,98.3484,VALID,0,VALID,21.0764,VALID,207,VALID,0.0641447,
2002-03-29, 00:02:00,VALID,918.141,VALID,0,VALID,98.3624,VALID,0,VALID,21.0894,VALID,207,VALID,0,
2002-03-29, 00:03:00,VALID,918.147,VALID,0,VALID,98.3459,VALID,0,VALID,21.0767,VALID,213,VALID,0.0230035,
2002-03-29, 00:04:00,VALID,918.149,VALID,0,VALID,98.3306,VALID,0,VALID,21.0702,VALID,214,VALID,0.144003,
2002-03-29, 00:05:00,VALID,918.156,VALID,0,VALID,98.3256,VALID,0,VALID,21.0474,VALID,214,VALID,0.293561,
2002-03-29, 00:06:00,VALID,918.163,VALID,0,VALID,98.3268,VALID,0,VALID,21.0447,VALID,214,VALID,0.141827,
2002-03-29, 00:07:00,VALID,918.153,VALID,0,VALID,98.3624,VALID,0,VALID,21.0342,VALID,214,VALID,0,
2002-03-29, 00:08:00,VALID,918.163,VALID,0,VALID,98.3968,VALID,-0.0169808,VALID,21.0441,VALID,214,VALID,0,
2002-03-29, 00:09:00,VALID,918.155,VALID,0,VALID,98.4209,VALID,0,VALID,21.0541,VALID,214,VALID,0,
2002-03-29, 00:10:00,VALID,918.147,VALID,0,VALID,98.4425,VALID,0,VALID,21.0805,VALID,214,VALID,0,
2002-03-29, 00:11:00,VALID,918.15,VALID,0,VALID,98.4476,VALID,0,VALID,21.0867,VALID,214,VALID,0,
2002-03-29, 00:12:00,VALID,918.155,VALID,0,VALID,98.4171,VALID,0.0169808,VALID,21.064,VALID,214,VALID,0,
2002-03-29, 00:13:00,VALID,918.167,VALID,0,VALID,98.4349,VALID,-0.0509425,VALID,21.0573,VALID,214,VALID,0,
2002-03-29, 00:14:00,VALID,918.182,VALID,0,VALID,98.4514,VALID,0,VALID,21.067,VALID,214,VALID,0,
2002-03-29, 00:15:00,VALID,918.203,VALID,0,VALID,98.4769,VALID,-0.0169808,VALID,21.0735,VALID,214,VALID,0,
2002-03-29, 00:16:00,VALID,918.217,VALID,0,VALID,98.5087,VALID,-0.0169808,VALID,21.1058,VALID,214,VALID,0,
2002-03-29, 00:17:00,VALID,918.207,VALID,0,VALID,98.5392,VALID,0.0169808,VALID,21.1416,VALID,214,VALID,0,
2002-03-29, 00:18:00,VALID,918.201,VALID,0,VALID,98.5544,VALID,0,VALID,21.1704,VALID,214,VALID,0,
2002-03-29, 00:19:00,VALID,918.189,VALID,0,VALID,98.5633,VALID,0,VALID,21.1863,VALID,214,VALID,0,
2002-03-29, 00:20:00,VALID,918.166,VALID,0,VALID,98.529,VALID,0,VALID,21.1901,VALID,263,VALID,0.27207,
2002-03-29, 00:21:00,VALID,918.124,VALID,0,VALID,98.501,VALID,0,VALID,21.154,VALID,321,VALID,0.557977,
2002-03-29, 00:22:00,VALID,918.098,VALID,0,VALID,98.4235,VALID,0.0169808,VALID,21.1023,VALID,327,VALID,0.566707,
2002-03-29, 00:23:00,VALID,918.083,VALID,0,VALID,98.4286,VALID,0.0169808,VALID,21.0794,VALID,334,VALID,0.370271,
2002-03-29, 00:24:00,VALID,918.061,VALID,0,VALID,98.4413,VALID,0,VALID,21.0861,VALID,356,VALID,0.444922,
2002-03-29, 00:25:00,VALID,918.05,VALID,0,VALID,98.4603,VALID,0,VALID,21.0861,VALID,17,VALID,0.421464,
2002-03-29, 00:26:00,VALID,918.043,VALID,0,VALID,98.4756,VALID,0,VALID,21.0899,VALID,17,VALID,0.126234,
2002-03-29, 00:27:00,VALID,918.044,VALID,0,VALID,98.4909,VALID,-0.0339617,VALID,21.0896,VALID,17,VALID,0.10403,
2002-03-29, 00:28:00,VALID,918.047,VALID,0,VALID,98.4832,VALID,-0.0509425,VALID,21.0969,VALID,17,VALID,0.112305,
2002-03-29, 00:29:00,VALID,918.032,VALID,0,VALID,98.4565,VALID,-0.0169808,VALID,21.0708,VALID,17,VALID,0.026727,
2002-03-29, 00:30:00,VALID,918.042,VALID,0,VALID,98.4769,VALID,-0.0339617,VALID,21.084,VALID,17,VALID,0,
2002-03-29, 00:31:00,VALID,918.04,VALID,0,VALID,98.5163,VALID,-0.0849042,VALID,21.1006,VALID,17,VALID,0.0505757,
2002-03-29, 00:32:00,VALID,918.038,VALID,0,VALID,98.4692,VALID,-0.0509425,VALID,21.0675,VALID,16,VALID,0.280273,
2002-03-29, 00:33:00,VALID,918.034,VALID,0,VALID,98.4336,VALID,-0.0339617,VALID,21.0449,VALID,16,VALID,0.564145,
2002-03-29, 00:34:00,VALID,918.028,VALID,0,VALID,98.4553,VALID,0,VALID,21.032,VALID,11,VALID,0.502056,
2002-03-29, 00:35:00,VALID,918.02,VALID,0,VALID,98.454,VALID,0,VALID,21.0191,VALID,9,VALID,0.652961,
2002-03-29, 00:36:00,VALID,918.009,VALID,0,VALID,98.4375,VALID,-0.0339617,VALID,20.9997,VALID,9,VALID,0.752539,
2002-03-29, 00:37:00,VALID,917.988,VALID,0,VALID,98.4667,VALID,0,VALID,21.0069,VALID,10,VALID,0.672492,
2002-03-29, 00:38:00,VALID,917.963,VALID,0,VALID,98.4476,VALID,-0.0339617,VALID,20.9803,VALID,10,VALID,0.737179,
2002-03-29, 00:39:00,VALID,917.944,VALID,0,VALID,98.4769,VALID,-0.0509425,VALID,20.9674,VALID,9,VALID,0.567434,
2002-03-29, 00:40:00,VALID,917.927,VALID,0,VALID,98.5048,VALID,-0.0339617,VALID,20.9641,VALID,3,VALID,0.483594,
2002-03-29, 00:41:00,VALID,917.915,VALID,0,VALID,98.4667,VALID,-0.0509425,VALID,20.9353,VALID,349,VALID,0.621505,
2002-03-29, 00:42:00,VALID,917.9,VALID,0,VALID,98.4781,VALID,-0.0339617,VALID,20.9229,VALID,345,VALID,0.782484,
2002-03-29, 00:43:00,VALID,917.896,VALID,0,VALID,98.4985,VALID,-0.0849042,VALID,20.9065,VALID,337,VALID,0.754112,
2002-03-29, 00:44:00,VALID,917.903,VALID,0,VALID,98.529,VALID,-0.0849042,VALID,20.907,VALID,329,VALID,0.365954,
2002-03-29, 00:45:00,VALID,917.902,VALID,0,VALID,98.5506,VALID,-0.0509425,VALID,20.9035,VALID,329,VALID,0.120683,
2002-03-29, 00:46:00,VALID,917.908,VALID,0,VALID,98.5837,VALID,-0.0509425,VALID,20.9124,VALID,329,VALID,0,
2002-03-29, 00:47:00,VALID,917.906,VALID,0,VALID,98.6155,VALID,-0.0679233,VALID,20.9388,VALID,329,VALID,0,
2002-03-29, 00:48:00,VALID,917.909,VALID,0,VALID,98.6307,VALID,-0.0509425,VALID,20.9682,VALID,329,VALID,0.01875,
2002-03-29, 00:49:00,VALID,917.918,VALID,0,VALID,98.6536,VALID,-0.0679233,VALID,20.9967,VALID,328,VALID,0.0491365,
2002-03-29, 00:50:00,VALID,917.92,VALID,0,VALID,98.6435,VALID,-0.0509425,VALID,20.9873,VALID,321,VALID,0.0986842,
2002-03-29, 00:51:00,VALID,917.915,VALID,0,VALID,98.6384,VALID,-0.0509425,VALID,21.004,VALID,279,VALID,0.355469,
2002-03-29, 00:52:00,VALID,917.917,VALID,0,VALID,98.6498,VALID,-0.0509425,VALID,20.9975,VALID,202,VALID,0.630273,
2002-03-29, 00:53:00,VALID,917.917,VALID,0,VALID,98.6346,VALID,-0.101885,VALID,20.9846,VALID,178,VALID,0.684005,
2002-03-29, 00:54:00,VALID,917.916,VALID,0,VALID,98.6117,VALID,-0.0679233,VALID,20.9647,VALID,192,VALID,0.522035,
2002-03-29, 00:55:00,VALID,917.904,VALID,0,VALID,98.6206,VALID,-0.101885,VALID,20.9523,VALID,182,VALID,0.361225,
2002-03-29, 00:56:00,VALID,917.887,VALID,0,VALID,98.6307,VALID,-0.0679233,VALID,20.962,VALID,171,VALID,0.414844,
2002-03-29, 00:57:00,VALID,917.86,VALID,0,VALID,98.6409,VALID,-0.101885,VALID,20.9719,VALID,178,VALID,0.0888158,
2002-03-29, 00:58:00,VALID,917.829,VALID,0,VALID,98.6587,VALID,-0.101885,VALID,20.9679,VALID,178,VALID,0,
2002-03-29, 00:59:00,VALID,917.802,VALID,0,VALID,98.6511,VALID,-0.0339617,VALID,20.9779,VALID,178,VALID,0,
2002-03-29, 01:00:00,VALID,917.778,VALID,0,VALID,98.6689,VALID,-0.0679233,VALID,20.9779,VALID,178,VALID,0,
2002-03-29, 01:01:00,VALID,917.749,VALID,0,VALID,98.6994,VALID,-0.0339617,VALID,21.0034,VALID,178,VALID,0.0141859,
2002-03-29, 01:02:00,VALID,917.749,VALID,0,VALID,98.7223,VALID,-0.0849042,VALID,21.0462,VALID,178,VALID,0.22496,
2002-03-29, 01:03:00,VALID,917.733,VALID,0,VALID,98.7312,VALID,-0.0509425,VALID,21.0619,VALID,178,VALID,0.133018,
2002-03-29, 01:04:00,VALID,917.72,VALID,0,VALID,98.7363,VALID,0,VALID,21.0643,VALID,178,VALID,0,
2002-03-29, 01:05:00,VALID,917.719,VALID,0,VALID,98.7363,VALID,-0.0679233,VALID,21.0778,VALID,178,VALID,0,
2002-03-29, 01:06:00,VALID,917.72,VALID,0,VALID,98.7312,VALID,0,VALID,21.084,VALID,178,VALID,0,
2002-03-29, 01:07:00,VALID,917.696,VALID,0,VALID,98.7401,VALID,-0.0339617,VALID,21.1168,VALID,178,VALID,0,
2002-03-29, 01:08:00,VALID,917.678,VALID,0,VALID,98.7477,VALID,-0.0169808,VALID,21.1195,VALID,178,VALID,0,
2002-03-29, 01:09:00,VALID,917.666,VALID,0,VALID,98.7337,VALID,-0.0339617,VALID,21.1133,VALID,180,VALID,0.203742,
2002-03-29, 01:10:00,VALID,917.641,VALID,0,VALID,98.7121,VALID,-0.0339617,VALID,21.0875,VALID,186,VALID,0.132212,
2002-03-29, 01:11:00,VALID,917.623,VALID,0,VALID,98.7172,VALID,0,VALID,21.0934,VALID,187,VALID,0,
2002-03-29, 01:12:00,VALID,917.603,VALID,0,VALID,98.707,VALID,-0.0339617,VALID,21.1001,VALID,187,VALID,0,
2002-03-29, 01:13:00,VALID,917.595,VALID,0,VALID,98.6752,VALID,-0.0509425,VALID,21.091,VALID,187,VALID,0,
2002-03-29, 01:14:00,VALID,917.558,VALID,0,VALID,98.6905,VALID,0,VALID,21.0802,VALID,110,VALID,0.201891,
2002-03-29, 01:15:00,VALID,917.547,VALID,0,VALID,98.7236,VALID,-0.0169808,VALID,21.1195,VALID,36,VALID,0.606702,
2002-03-29, 01:16:00,VALID,917.521,VALID,0,VALID,98.7465,VALID,-0.0169808,VALID,21.1483,VALID,39,VALID,0.704102,
2002-03-29, 01:17:00,VALID,917.502,VALID,0,VALID,98.7643,VALID,0,VALID,21.1707,VALID,33,VALID,0.679688,
2002-03-29, 01:18:00,VALID,917.476,VALID,0,VALID,98.7744,VALID,-0.0169808,VALID,21.1963,VALID,32,VALID,0.567107,
2002-03-29, 01:19:00,VALID,917.46,VALID,0,VALID,98.7452,VALID,-0.0339617,VALID,21.1774,VALID,33,VALID,0.353618,
2002-03-29, 01:20:00,VALID,917.446,VALID,0,VALID,98.7592,VALID,0,VALID,21.2065,VALID,32,VALID,0.244141,
2002-03-29, 01:21:00,VALID,917.43,VALID,0,VALID,98.7655,VALID,-0.0339617,VALID,21.2294,VALID,32,VALID,0.24815,
2002-03-29, 01:22:00,VALID,917.399,VALID,0,VALID,98.7541,VALID,-0.0339617,VALID,21.2264,VALID,32,VALID,0.0285773,
2002-03-29, 01:23:00,VALID,917.379,VALID,0,VALID,98.7375,VALID,-0.0339617,VALID,21.2065,VALID,32,VALID,0.0530428,
2002-03-29, 01:24:00,VALID,917.359,VALID,0,VALID,98.7223,VALID,-0.0339617,VALID,21.1906,VALID,32,VALID,0.0355469,
2002-03-29, 01:25:00,VALID,917.336,VALID,0,VALID,98.7096,VALID,-0.0169808,VALID,21.1876,VALID,32,VALID,0.0182977,
2002-03-29, 01:26:00,VALID,917.331,VALID,0,VALID,98.6994,VALID,-0.0339617,VALID,21.1742,VALID,32,VALID,0,
2002-03-29, 01:27:00,VALID,917.318,VALID,0,VALID,98.6765,VALID,0.0339617,VALID,21.1403,VALID,32,VALID,0.00123355,
2002-03-29, 01:28:00,VALID,917.301,VALID,0,VALID,98.6651,VALID,0.0679233,VALID,21.1174,VALID,32,VALID,0,
2002-03-29, 01:29:00,VALID,917.304,VALID,0,VALID,98.6562,VALID,0,VALID,21.0988,VALID,33,VALID,0.282278,
2002-03-29, 01:30:00,VALID,917.283,VALID,0,VALID,98.6511,VALID,0.0509425,VALID,21.0759,VALID,36,VALID,0.256168,
2002-03-29, 01:31:00,VALID,917.263,VALID,0,VALID,98.6536,VALID,0.0509425,VALID,21.0563,VALID,46,VALID,0.280016,
2002-03-29, 01:32:00,VALID,917.236,VALID,0,VALID,98.6613,VALID,0.0509425,VALID,21.0431,VALID,68,VALID,0.185742,
2002-03-29, 01:33:00,VALID,917.201,VALID,0,VALID,98.6765,VALID,0.0679233,VALID,21.0396,VALID,68,VALID,0.129523,
2002-03-29, 01:34:00,VALID,917.173,VALID,0,VALID,98.6943,VALID,0.0339617,VALID,21.053,VALID,146,VALID,0.450721,
2002-03-29, 01:35:00,VALID,917.147,VALID,0,VALID,98.7019,VALID,0.0849042,VALID,21.056,VALID,161,VALID,0.584498,
2002-03-29, 01:36:00,VALID,917.131,VALID,0,VALID,98.7045,VALID,0.0339617,VALID,21.0468,VALID,161,VALID,0.572852,
2002-03-29, 01:37:00,VALID,917.138,VALID,0,VALID,98.7172,VALID,0.0679233,VALID,21.0595,VALID,161,VALID,0.414679,
2002-03-29, 01:38:00,VALID,917.123,VALID,0,VALID,98.7248,VALID,0.0169808,VALID,21.0659,VALID,161,VALID,0.285156,
2002-03-29, 01:39:00,VALID,917.114,VALID,0,VALID,98.7388,VALID,0.0169808,VALID,21.0859,VALID,149,VALID,0.298725,
2002-03-29, 01:40:00,VALID,917.104,VALID,0,VALID,98.7477,VALID,0.0679233,VALID,21.0783,VALID,139,VALID,0.204492,
2002-03-29, 01:41:00,VALID,917.104,VALID,0,VALID,98.7121,VALID,0.0679233,VALID,21.0694,VALID,81,VALID,0.375822,
2002-03-29, 01:42:00,VALID,917.11,VALID,0,VALID,98.7159,VALID,0.0849042,VALID,21.0525,VALID,47,VALID,0.00801282,
2002-03-29, 01:43:00,VALID,917.115,VALID,0,VALID,98.7248,VALID,0.0679233,VALID,21.0595,VALID,47,VALID,0,
2002-03-29, 01:44:00,VALID,917.125,VALID,0,VALID,98.7541,VALID,0.0339617,VALID,21.0727,VALID,50,VALID,0.178906,
2002-03-29, 01:45:00,VALID,917.123,VALID,0,VALID,98.7312,VALID,0.0339617,VALID,21.06,VALID,61,VALID,0.239515,
2002-03-29, 01:46:00,VALID,917.131,VALID,0,VALID,98.6918,VALID,0.0509425,VALID,21.0269,VALID,83,VALID,0.103002,
2002-03-29, 01:47:00,VALID,917.129,VALID,0,VALID,98.7032,VALID,0.0849042,VALID,21.014,VALID,88,VALID,0.12315,
2002-03-29, 01:48:00,VALID,917.151,VALID,0,VALID,98.7032,VALID,0.0339617,VALID,21.0021,VALID,88,VALID,0.111133,
2002-03-29, 01:49:00,VALID,917.147,VALID,0,VALID,98.7147,VALID,0.0679233,VALID,20.9949,VALID,125,VALID,0.433183,
2002-03-29, 01:50:00,VALID,917.144,VALID,0,VALID,98.7134,VALID,0.0849042,VALID,20.9849,VALID,153,VALID,0.473758,
2002-03-29, 01:51:00,VALID,917.142,VALID,0,VALID,98.7401,VALID,0.0679233,VALID,20.9819,VALID,162,VALID,0.337377,
2002-03-29, 01:52:00,VALID,917.142,VALID,0,VALID,98.7388,VALID,0.0679233,VALID,20.9951,VALID,163,VALID,0.45625,
2002-03-29, 01:53:00,VALID,917.148,VALID,0,VALID,98.7414,VALID,0.101885,VALID,20.9884,VALID,160,VALID,0.515008,
2002-03-29, 01:54:00,VALID,917.141,VALID,0,VALID,98.7452,VALID,0.0679233,VALID,20.9717,VALID,160,VALID,0.219367,
2002-03-29, 01:55:00,VALID,917.139,VALID,0,VALID,98.7592,VALID,0.0339617,VALID,20.9984,VALID,160,VALID,0.242599,
2002-03-29, 01:56:00,VALID,917.124,VALID,0,VALID,98.7465,VALID,0.0679233,VALID,20.9784,VALID,167,VALID,0.686328,
2002-03-29, 01:57:00,VALID,917.108,VALID,0,VALID,98.7414,VALID,0.0679233,VALID,20.9561,VALID,171,VALID,0.368832,
2002-03-29, 01:58:00,VALID,917.093,VALID,0,VALID,98.7541,VALID,0.101885,VALID,20.9698,VALID,189,VALID,0.389623,
2002-03-29, 01:59:00,VALID,917.071,VALID,0,VALID,98.7592,VALID,0.0849042,VALID,20.9593,VALID,208,VALID,0.477796,
2002-03-29, 02:00:00,VALID,917.068,VALID,0,VALID,98.7706,VALID,0.0339617,VALID,20.9561,VALID,203,VALID,0.438477,
2002-03-29, 02:01:00,VALID,917.061,VALID,0,VALID,98.7732,VALID,0.0849042,VALID,20.9523,VALID,199,VALID,0.549342,
2002-03-29, 02:02:00,VALID,917.058,VALID,0,VALID,98.7643,VALID,0.0849042,VALID,20.9464,VALID,205,VALID,0.340872,
2002-03-29, 02:03:00,VALID,917.065,VALID,0,VALID,98.777,VALID,0.0509425,VALID,20.9499,VALID,211,VALID,0,
2002-03-29, 02:04:00,VALID,917.06,VALID,0,VALID,98.7948,VALID,0.0679233,VALID,20.9693,VALID,211,VALID,0.000976563,
2002-03-29, 02:05:00,VALID,917.059,VALID,0,VALID,98.8189,VALID,0.0339617,VALID,20.9957,VALID,211,VALID,0,
2002-03-29, 02:06:00,VALID,917.051,VALID,0,VALID,98.7935,VALID,0.0509425,VALID,20.9854,VALID,211,VALID,0,
2002-03-29, 02:07:00,VALID,917.035,VALID,0,VALID,98.7757,VALID,0.0509425,VALID,20.9725,VALID,211,VALID,0,
2002-03-29, 02:08:00,VALID,917.035,VALID,0,VALID,98.7922,VALID,0.0169808,VALID,20.9628,VALID,210,VALID,0,
2002-03-29, 02:09:00,VALID,917.031,VALID,0,VALID,98.7922,VALID,0.0509425,VALID,20.9757,VALID,210,VALID,0,
2002-03-29, 02:10:00,VALID,917.033,VALID,0,VALID,98.8011,VALID,0.0339617,VALID,20.9792,VALID,210,VALID,0,
2002-03-29, 02:11:00,VALID,917.011,VALID,0,VALID,98.8062,VALID,0.0339617,VALID,20.976,VALID,210,VALID,0,
2002-03-29, 02:12:00,VALID,917.01,VALID,0,VALID,98.8088,VALID,0.0339617,VALID,20.979,VALID,210,VALID,0.0078125,
2002-03-29, 02:13:00,VALID,917.01,VALID,0,VALID,98.8253,VALID,0.0679233,VALID,21.0043,VALID,210,VALID,0.000822368,
2002-03-29, 02:14:00,VALID,916.998,VALID,0,VALID,98.8571,VALID,0.0339617,VALID,21.0409,VALID,153,VALID,0.207933,
2002-03-29, 02:15:00,VALID,916.974,VALID,0,VALID,98.8431,VALID,0.0509425,VALID,21.0433,VALID,83,VALID,0.415913,
2002-03-29, 02:16:00,VALID,916.957,VALID,0,VALID,98.8291,VALID,0.0679233,VALID,21.0463,VALID,76,VALID,0.638867,
2002-03-29, 02:17:00,VALID,916.944,VALID,0,VALID,98.81,VALID,0.0849042,VALID,21.0398,VALID,68,VALID,0.728002,
2002-03-29, 02:18:00,VALID,916.945,VALID,0,VALID,98.8049,VALID,0.0849042,VALID,21.0239,VALID,68,VALID,0.325658,
2002-03-29, 02:19:00,VALID,916.954,VALID,0,VALID,98.7973,VALID,0.0679233,VALID,21.0212,VALID,68,VALID,0.212377,
2002-03-29, 02:20:00,VALID,916.961,VALID,0,VALID,98.81,VALID,0.0849042,VALID,21.021,VALID,68,VALID,0.326562,
2002-03-29, 02:21:00,VALID,916.981,VALID,0,VALID,98.7821,VALID,0.101885,VALID,21.0043,VALID,72,VALID,0.565995,
2002-03-29, 02:22:00,VALID,916.995,VALID,0,VALID,98.7681,VALID,0.0339617,VALID,20.9919,VALID,72,VALID,0.715345,
2002-03-29, 02:23:00,VALID,916.993,VALID,0,VALID,98.7821,VALID,0.0679233,VALID,20.9787,VALID,71,VALID,0.767475,
2002-03-29, 02:24:00,VALID,916.999,VALID,0,VALID,98.7821,VALID,0.0509425,VALID,20.9564,VALID,74,VALID,0.764648,
2002-03-29, 02:25:00,VALID,916.991,VALID,0,VALID,98.7935,VALID,0.0169808,VALID,20.9529,VALID,76,VALID,0.619038,
2002-03-29, 02:26:00,VALID,916.982,VALID,0,VALID,98.8139,VALID,-0.0339617,VALID,20.9542,VALID,76,VALID,0.60773,
2002-03-29, 02:27:00,VALID,916.988,VALID,0,VALID,98.8291,VALID,-0.118866,VALID,20.955,VALID,69,VALID,0.609786,
2002-03-29, 02:28:00,VALID,916.976,VALID,0,VALID,98.8291,VALID,-0.101885,VALID,20.9649,VALID,71,VALID,0.532227,
2002-03-29, 02:29:00,VALID,916.967,VALID,0,VALID,98.8367,VALID,-0.101885,VALID,20.962,VALID,72,VALID,0.429071,
2002-03-29, 02:30:00,VALID,916.941,VALID,0,VALID,98.8406,VALID,-0.0679233,VALID,20.9547,VALID,63,VALID,0.715144,
2002-03-29, 02:31:00,VALID,916.93,VALID,0,VALID,98.8634,VALID,-0.118866,VALID,20.9779,VALID,45,VALID,0.600946,
2002-03-29, 02:32:00,VALID,916.92,VALID,0,VALID,98.8367,VALID,-0.101885,VALID,20.9614,VALID,60,VALID,0.758398,
2002-03-29, 02:33:00,VALID,916.909,VALID,0,VALID,98.8266,VALID,-0.101885,VALID,20.9358,VALID,58,VALID,0.945107,
2002-03-29, 02:34:00,VALID,916.876,VALID,0,VALID,98.8189,VALID,-0.101885,VALID,20.9167,VALID,55,VALID,0.735609,
2002-03-29, 02:35:00,VALID,916.857,VALID,0,VALID,98.8189,VALID,-0.101885,VALID,20.9,VALID,74,VALID,0.553248,
2002-03-29, 02:36:00,VALID,916.836,VALID,0,VALID,98.8482,VALID,-0.101885,VALID,20.9035,VALID,56,VALID,0.393945,
2002-03-29, 02:37:00,VALID,916.85,VALID,0,VALID,98.8545,VALID,-0.101885,VALID,20.9038,VALID,67,VALID,0.268914,
2002-03-29, 02:38:00,VALID,916.837,VALID,0,VALID,98.8507,VALID,-0.118866,VALID,20.8871,VALID,67,VALID,0.0823317,
2002-03-29, 02:39:00,VALID,916.832,VALID,0,VALID,98.8571,VALID,-0.118866,VALID,20.8973,VALID,67,VALID,0,
2002-03-29, 02:40:00,VALID,916.818,VALID,0,VALID,98.88,VALID,-0.101885,VALID,20.9103,VALID,67,VALID,0.00410156,
2002-03-29, 02:41:00,VALID,916.808,VALID,0,VALID,98.8851,VALID,-0.0509425,VALID,20.9149,VALID,41,VALID,0.343133,
2002-03-29, 02:42:00,VALID,916.785,VALID,0,VALID,98.899,VALID,0,VALID,20.9337,VALID,38,VALID,0.383224,
2002-03-29, 02:43:00,VALID,916.773,VALID,0,VALID,98.8863,VALID,0,VALID,20.9345,VALID,59,VALID,0.581414,
2002-03-29, 02:44:00,VALID,916.748,VALID,0,VALID,98.8622,VALID,0,VALID,20.9154,VALID,49,VALID,0.496875,
2002-03-29, 02:45:00,VALID,916.739,VALID,0,VALID,98.894,VALID,-0.0169808,VALID,20.9343,VALID,19,VALID,0.74116,
2002-03-29, 02:46:00,VALID,916.719,VALID,0,VALID,98.9041,VALID,0,VALID,20.9636,VALID,22,VALID,0.885617,
2002-03-29, 02:47:00,VALID,916.703,VALID,0,VALID,98.913,VALID,0.0169808,VALID,20.9862,VALID,17,VALID,0.725123,
2002-03-29, 02:48:00,VALID,916.69,VALID,0,VALID,98.913,VALID,0,VALID,20.9827,VALID,33,VALID,0.552344,
2002-03-29, 02:49:00,VALID,916.684,VALID,0,VALID,98.8851,VALID,0,VALID,20.941,VALID,43,VALID,0.794613,
2002-03-29, 02:50:00,VALID,916.684,VALID,0,VALID,98.8736,VALID,0,VALID,20.9084,VALID,45,VALID,0.86472,
2002-03-29, 02:51:00,VALID,916.673,VALID,0,VALID,98.8673,VALID,0.0169808,VALID,20.8793,VALID,23,VALID,0.573602,
2002-03-29, 02:52:00,VALID,916.672,VALID,0,VALID,98.8914,VALID,0,VALID,20.8925,VALID,35,VALID,0.397656,
2002-03-29, 02:53:00,VALID,916.685,VALID,0,VALID,98.8952,VALID,0.0169808,VALID,20.9022,VALID,38,VALID,0.289063,
2002-03-29, 02:54:00,VALID,916.672,VALID,0,VALID,98.9067,VALID,0,VALID,20.9119,VALID,33,VALID,0.388421,
2002-03-29, 02:55:00,VALID,916.666,VALID,0,VALID,98.9258,VALID,0,VALID,20.931,VALID,24,VALID,0.327919,
2002-03-29, 02:56:00,VALID,916.668,VALID,0,VALID,98.927,VALID,0,VALID,20.9698,VALID,24,VALID,0.272656,
2002-03-29, 02:57:00,VALID,916.665,VALID,0,VALID,98.9245,VALID,0,VALID,20.9564,VALID,33,VALID,0.24815,
2002-03-29, 02:58:00,VALID,916.669,VALID,0,VALID,98.9232,VALID,0.0169808,VALID,20.9599,VALID,36,VALID,0.424548,
2002-03-29, 02:59:00,VALID,916.675,VALID,0,VALID,98.9296,VALID,-0.0169808,VALID,20.9736,VALID,35,VALID,0.359992,
2002-03-29, 03:00:00,VALID,916.687,VALID,0,VALID,98.9321,VALID,0,VALID,20.973,VALID,35,VALID,0.231445,
2002-03-29, 03:01:00,VALID,916.71,VALID,0,VALID,98.9359,VALID,0.0169808,VALID,20.9857,VALID,35,VALID,0.1875,
2002-03-29, 03:02:00,VALID,916.717,VALID,0,VALID,98.9321,VALID,0,VALID,20.9787,VALID,35,VALID,0.178686,
2002-03-29, 03:03:00,VALID,916.74,VALID,0,VALID,98.9423,VALID,0.0339617,VALID,21.0054,VALID,35,VALID,0.103207,
2002-03-29, 03:04:00,VALID,916.736,VALID,0,VALID,98.9474,VALID,0,VALID,21.0078,VALID,35,VALID,0.0136719,
2002-03-29, 03:05:00,VALID,916.747,VALID,0,VALID,98.9474,VALID,0.0169808,VALID,21.0043,VALID,35,VALID,0.176809,
2002-03-29, 03:06:00,VALID,916.742,VALID,0,VALID,98.941,VALID,0.0169808,VALID,20.9954,VALID,35,VALID,0.0768914,
2002-03-29, 03:07:00,VALID,916.746,VALID,0,VALID,98.9321,VALID,0,VALID,20.9819,VALID,35,VALID,0.0587993,
2002-03-29, 03:08:00,VALID,916.74,VALID,0,VALID,98.9321,VALID,0.0169808,VALID,20.9787,VALID,35,VALID,0,
2002-03-29, 03:09:00,VALID,916.741,VALID,0,VALID,98.9359,VALID,0.0169808,VALID,20.9728,VALID,35,VALID,0,
2002-03-29, 03:10:00,VALID,916.746,VALID,0,VALID,98.9346,VALID,0,VALID,20.98,VALID,35,VALID,0.0010016,
2002-03-29, 03:11:00,VALID,916.737,VALID,0,VALID,98.9474,VALID,-0.0679233,VALID,21.0002,VALID,35,VALID,0,
2002-03-29, 03:12:00,VALID,916.738,VALID,0,VALID,98.955,VALID,-0.101885,VALID,21.0296,VALID,35,VALID,0.0144531,
2002-03-29, 03:13:00,VALID,916.739,VALID,0,VALID,98.9664,VALID,-0.101885,VALID,21.0398,VALID,35,VALID,0.00164474,
2002-03-29, 03:14:00,VALID,916.753,VALID,0,VALID,98.9614,VALID,-0.101885,VALID,21.0263,VALID,28,VALID,0,
2002-03-29, 03:15:00,VALID,916.756,VALID,0,VALID,98.9614,VALID,-0.101885,VALID,21.0258,VALID,348,VALID,0.169613,
2002-03-29, 03:16:00,VALID,916.758,VALID,0,VALID,98.9563,VALID,-0.101885,VALID,21.0096,VALID,278,VALID,0.291797,
2002-03-29, 03:17:00,VALID,916.759,VALID,0,VALID,98.9486,VALID,-0.0849042,VALID,21.0075,VALID,268,VALID,0.174959,
2002-03-29, 03:18:00,VALID,916.758,VALID,0,VALID,98.9525,VALID,-0.101885,VALID,20.9935,VALID,268,VALID,0,
2002-03-29, 03:19:00,VALID,916.766,VALID,0,VALID,98.9601,VALID,-0.0849042,VALID,21.0037,VALID,268,VALID,0,
2002-03-29, 03:20:00,VALID,916.758,VALID,0,VALID,98.955,VALID,-0.101885,VALID,20.9972,VALID,268,VALID,0,
2002-03-29, 03:21:00,VALID,916.753,VALID,0,VALID,98.9626,VALID,-0.0849042,VALID,21.0034,VALID,324,VALID,0.142475,
2002-03-29, 03:22:00,VALID,916.741,VALID,0,VALID,98.9741,VALID,-0.101885,VALID,21.029,VALID,342,VALID,0.00246711,
2002-03-29, 03:23:00,VALID,916.745,VALID,0,VALID,98.9855,VALID,-0.0849042,VALID,21.0551,VALID,342,VALID,0,
2002-03-29, 03:24:00,VALID,916.71,VALID,0,VALID,98.983,VALID,-0.101885,VALID,21.0713,VALID,342,VALID,0.0945313,
2002-03-29, 03:25:00,VALID,916.716,VALID,0,VALID,98.9728,VALID,-0.101885,VALID,21.0748,VALID,342,VALID,0.129112,
2002-03-29, 03:26:00,VALID,916.698,VALID,0,VALID,98.9601,VALID,-0.0169808,VALID,21.0452,VALID,342,VALID,0,
2002-03-29, 03:27:00,VALID,916.69,VALID,0,VALID,98.9639,VALID,-0.0339617,VALID,21.0452,VALID,342,VALID,0.000205592,
2002-03-29, 03:28:00,VALID,916.673,VALID,0,VALID,98.9753,VALID,-0.0679233,VALID,21.0751,VALID,353,VALID,0.285156,
2002-03-29, 03:29:00,VALID,916.686,VALID,0,VALID,98.9753,VALID,-0.0849042,VALID,21.071,VALID,356,VALID,0.0756579,
2002-03-29, 03:30:00,VALID,916.687,VALID,0,VALID,98.9703,VALID,-0.0849042,VALID,21.0651,VALID,356,VALID,0,
2002-03-29, 03:31:00,VALID,916.691,VALID,0,VALID,98.969,VALID,-0.0509425,VALID,21.0708,VALID,356,VALID,0.0104852,
2002-03-29, 03:32:00,VALID,916.694,VALID,0,VALID,98.983,VALID,-0.0849042,VALID,21.084,VALID,360,VALID,0.231641,
2002-03-29, 03:33:00,VALID,916.69,VALID,0,VALID,98.9728,VALID,-0.0339617,VALID,21.0778,VALID,16,VALID,0.27426,
2002-03-29, 03:34:00,VALID,916.681,VALID,0,VALID,98.9703,VALID,-0.0339617,VALID,21.0673,VALID,27,VALID,0.189103,
2002-03-29, 03:35:00,VALID,916.67,VALID,0,VALID,98.9804,VALID,-0.0679233,VALID,21.0875,VALID,27,VALID,0.0793586,